Date,TemperatureHighF,TemperatureAvgF,TemperatureLowF,DewpointHighF,DewpointAvgF,DewpointLowF,HumidityHigh,HumidityAvg,HumidityLow,PressureMaxIn,PressureMinIn,WindSpeedMaxMPH,WindSpeedAvgMPH,GustSpeedMaxMPH,PrecipitationSumIn
2013-1-1,39,35,26,28,24,14,74,64,55,29.96,29.78,9,6,12,0.01
2013-1-2,31,26,22,16,13,12,67,58,48,30.13,29.93,10,4,15,0.00
2013-1-3,32,26,20,19,14,13,73,61,47,30.14,30.02,8,3,10,0.00
2013-1-4,36,33,27,21,20,18,68,59,52,30.04,29.92,12,6,17,0.00
2013-1-5,40,33,28,23,20,17,78,58,47,30.25,29.98,11,5,15,0.00
2013-1-6,45,37,29,31,27,22,92,68,47,30.15,29.91,8,2,10,0.00
2013-1-7,44,38,31,30,26,22,76,61,43,30.33,29.99,11,4,16,0.00
2013-1-8,47,35,26,32,27,21,86,73,49,30.33,30.27,5,1,9,0.00
2013-1-9,46,37,24,37,31,22,93,80,53,30.32,30.08,11,2,15,0.00
2013-1-10,48,41,36,28,22,-100,64,50,40,30.46,30.19,10,-24,13,0.00
2013-1-11,42,12,42,42,-61,-100,97,27,92,30.44,30.01,2,-720,3,0.22
2013-1-12,46,43,41,45,42,41,98,97,95,30.09,30.00,4,1,5,0.07
2013-1-13,47,45,42,47,44,41,99,98,98,30.07,29.91,4,1,6,0.01
2013-1-14,53,48,39,52,43,29,99,84,48,30.21,29.84,8,3,13,0.02
2013-1-15,39,36,33,36,29,25,92,77,65,30.28,30.13,9,2,11,0.09
2013-1-16,35,33,32,34,32,30,97,95,90,30.13,29.75,7,1,7,0.41
2013-1-17,40,37,34,34,28,26,94,71,59,30.02,29.86,11,4,14,0.11
2013-1-18,34,28,24,28,13,4,80,54,35,30.41,29.93,14,5,18,0.02
2013-1-19,51,38,27,29,23,12,73,57,37,30.33,29.84,9,5,11,0.23
2013-1-20,52,40,28,30,22,10,70,49,24,29.97,29.65,16,8,21,0.00
2013-1-21,30,26,22,19,11,8,73,53,44,30.01,29.80,13,3,17,0.00
2013-1-22,24,16,11,8,-3,-8,53,42,31,30.18,29.80,15,10,18,0.00
2013-1-23,18,12,9,4,-2,-7,76,53,40,30.21,30.11,11,5,14,0.00
2013-1-24,23,16,9,7,1,-6,82,55,28,30.38,30.06,15,5,18,0.00
2013-1-25,21,15,8,14,3,-5,86,61,40,30.39,30.01,9,2,10,0.00
2013-1-26,26,18,8,10,7,4,86,63,42,30.33,30.00,11,4,15,0.00
2013-1-27,33,23,11,15,10,4,72,58,42,30.49,30.33,9,2,12,0.00
2013-1-28,34,29,21,33,26,12,96,87,66,30.42,29.94,6,2,9,0.10
2013-1-29,50,42,34,45,40,33,97,91,79,30.07,29.94,4,1,5,0.04
2013-1-30,65,52,41,58,50,40,98,94,76,29.96,29.24,11,3,17,0.36
2013-1-31,62,41,27,59,28,9,100,61,38,29.75,28.98,24,12,30,0.21
2013-2-1,28,26,20,15,8,1,64,47,32,30.20,29.74,16,8,24,0.00
2013-2-2,26,21,15,20,9,3,88,61,40,30.24,29.96,8,4,10,0.00
2013-2-3,28,24,19,22,19,15,92,81,62,29.96,29.74,14,1,15,0.04
2013-2-4,28,24,20,20,10,6,78,55,42,29.94,29.78,14,6,21,0.00
2013-2-5,31,28,25,27,24,20,91,84,78,29.89,29.81,3,1,4,0.00
2013-2-6,37,31,26,27,21,11,93,67,48,30.27,29.85,12,4,17,0.04
2013-2-7,33,27,21,20,14,10,71,58,44,30.42,30.22,4,2,9,0.01
2013-2-8,34,32,30,31,29,21,96,87,69,30.21,29.62,11,6,15,0.03
2013-2-9,32,26,19,31,15,6,96,65,40,30.30,29.71,21,12,25,0.01
2013-2-10,39,26,14,18,10,7,74,52,29,30.41,30.23,5,1,8,0.22
2013-2-11,46,37,30,46,35,19,99,92,61,30.23,29.59,9,1,10,0.23
2013-2-12,42,39,30,38,24,21,91,56,48,29.91,29.68,14,8,19,0.00
2013-2-13,41,33,24,31,25,20,95,74,55,29.89,29.61,4,1,8,0.00
2013-2-14,44,36,29,32,28,23,96,75,49,29.93,29.64,5,1,6,0.15
2013-2-15,54,41,30,35,30,24,93,66,41,29.93,29.84,9,3,14,0.07
2013-2-16,35,32,28,32,24,10,95,72,45,29.90,29.70,10,5,13,0.04
2013-2-17,28,25,19,10,4,-2,47,41,34,29.99,29.67,18,13,25,0.00
2013-2-18,34,25,17,13,6,0,51,45,33,30.24,29.99,15,7,17,0.00
2013-2-19,43,35,22,40,27,11,95,74,50,30.11,29.63,12,4,16,0.31
2013-2-20,35,28,24,24,12,8,64,51,44,29.96,29.69,18,12,25,0.00
2013-2-21,35,27,22,15,12,9,64,53,42,30.24,29.95,16,10,21,0.00
2013-2-22,36,29,21,28,19,12,82,67,55,30.34,30.16,8,3,13,0.00
2013-2-23,42,38,32,41,36,28,98,95,82,30.18,29.74,5,2,9,0.10
2013-2-24,44,37,31,38,29,19,97,75,56,29.94,29.71,14,6,22,0.00
2013-2-25,44,35,28,28,23,19,77,62,46,30.16,29.94,9,3,13,0.00
2013-2-26,43,34,25,34,28,22,93,78,59,30.18,29.73,10,4,16,0.09
2013-2-27,47,42,36,44,38,34,96,85,68,29.73,29.44,14,6,18,0.07
2013-2-28,44,40,35,34,31,24,85,71,48,29.58,29.49,9,4,14,0.27
2013-3-1,42,37,31,30,27,23,89,68,51,29.74,29.57,12,6,16,0.04
2013-3-2,38,33,29,24,21,18,67,61,54,29.74,29.66,13,8,15,0.00
2013-3-3,35,30,25,19,17,15,67,57,47,29.73,29.65,12,8,17,0.00
2013-3-4,38,32,28,22,17,13,62,54,44,29.88,29.73,15,10,22,0.00
2013-3-5,46,36,31,27,23,20,73,58,41,29.96,29.86,12,4,14,0.00
2013-3-6,41,37,32,34,29,25,85,73,61,29.88,29.71,15,9,22,0.03
2013-3-7,44,38,34,30,26,23,83,61,47,30.02,29.87,13,8,20,0.00
2013-3-8,43,35,29,31,27,22,92,74,56,30.17,29.98,12,9,16,0.02
2013-3-9,59,43,31,24,19,14,64,41,18,30.23,30.14,9,4,12,0.00
2013-3-10,55,41,27,34,26,16,85,57,32,30.28,30.17,6,2,10,0.00
2013-3-11,58,46,35,48,40,31,97,82,48,30.22,29.96,7,2,10,0.00
2013-3-12,56,51,42,55,47,32,96,86,67,29.96,29.60,14,6,18,1.34
2013-3-13,47,40,33,33,27,21,82,60,40,29.86,29.74,15,6,17,0.00
2013-3-14,40,34,29,21,13,7,67,44,28,29.92,29.82,17,11,23,0.00
2013-3-15,49,38,25,30,20,10,60,49,39,29.95,29.65,11,6,16,0.00
2013-3-16,44,35,31,30,27,21,92,76,55,29.85,29.69,8,2,10,0.08
2013-3-17,36,32,27,29,20,15,91,63,46,30.23,29.85,9,4,10,0.08
2013-3-18,36,30,26,32,21,10,94,70,48,30.30,29.85,8,4,12,0.01
2013-3-19,48,38,33,37,30,16,97,76,35,29.85,29.62,17,6,17,0.57
2013-3-20,44,37,30,22,17,14,57,45,31,29.83,29.71,13,7,16,0.00
2013-3-21,36,32,28,28,17,8,92,57,34,29.75,29.59,12,6,15,0.01
2013-3-22,39,32,27,22,18,10,70,55,44,29.85,29.69,13,8,18,0.00
2013-3-23,44,37,30,23,18,16,60,48,35,29.88,29.79,14,8,20,0.00
2013-3-24,45,38,28,25,19,16,66,48,31,29.90,29.61,10,3,14,0.00
2013-3-25,36,35,33,34,30,24,94,84,61,29.61,29.41,7,4,14,0.26
2013-3-26,50,40,34,33,30,23,94,69,37,29.82,29.56,10,5,14,0.00
2013-3-27,48,41,33,30,28,22,81,61,36,29.94,29.82,13,6,21,0.00
2013-3-28,46,41,34,29,27,24,76,59,44,30.07,29.92,12,6,17,0.00
2013-3-29,51,44,34,31,27,24,68,52,38,30.09,30.01,11,5,13,0.00
2013-3-30,57,45,34,30,24,18,73,47,22,30.11,30.00,10,3,11,0.00
2013-3-31,55,44,32,46,33,22,97,68,38,30.04,29.62,11,3,13,0.27
2013-4-1,58,47,36,46,34,11,98,67,31,29.85,29.58,17,7,25,0.01
2013-4-2,42,36,30,15,11,8,47,36,25,30.04,29.85,15,8,19,0.00
2013-4-3,44,36,29,16,11,7,48,36,24,30.25,30.04,15,7,23,0.00
2013-4-4,52,39,28,27,18,9,58,43,27,30.33,30.00,7,3,10,0.00
2013-4-5,61,48,37,31,24,15,74,43,18,30.00,29.67,13,6,16,0.00
2013-4-6,51,42,32,27,17,12,59,38,22,30.23,29.94,11,4,15,0.00
2013-4-7,62,50,37,42,34,24,70,54,41,30.21,29.90,11,6,23,0.00
2013-4-8,75,62,46,49,44,39,85,55,32,29.98,29.86,7,3,14,0.00
2013-4-9,81,71,58,52,46,38,73,44,22,29.90,29.79,15,6,30,0.00
2013-4-10,85,70,60,60,54,51,96,60,35,29.84,29.67,15,3,38,0.69
2013-4-11,61,57,46,60,53,42,97,87,70,29.88,29.66,8,4,17,0.01
2013-4-12,46,43,41,43,41,40,97,92,77,29.86,29.62,11,6,26,0.58
2013-4-13,57,48,36,42,36,32,97,66,40,29.89,29.67,9,3,19,0.00
2013-4-14,59,50,40,38,32,24,85,52,31,30.08,29.88,14,4,25,0.00
2013-4-15,60,50,44,41,35,30,70,56,46,30.26,30.08,6,2,13,0.00
2013-4-16,70,58,45,56,49,40,88,71,57,30.25,30.03,12,4,23,0.00
2013-4-17,70,61,54,55,44,32,88,58,26,30.18,30.01,8,3,16,0.00
2013-4-18,60,54,48,55,48,40,93,80,66,30.22,29.97,5,2,15,0.09
2013-4-19,76,66,52,65,60,46,95,83,60,29.97,29.50,14,7,29,1.13
2013-4-20,54,49,43,47,32,22,87,53,32,30.23,29.64,13,9,30,0.06
2013-4-21,53,43,34,29,23,19,62,46,27,30.53,30.23,10,4,18,0.00
2013-4-22,52,43,33,36,31,27,86,63,41,30.54,30.38,8,4,19,0.00
2013-4-23,50,44,39,42,37,32,85,75,67,30.38,30.06,6,3,14,0.00
2013-4-24,70,56,38,55,47,37,94,75,54,30.06,29.71,9,3,17,0.00
2013-4-25,63,52,42,55,30,24,78,45,24,30.19,29.78,17,6,20,0.00
2013-4-26,63,52,43,37,29,22,63,43,23,30.34,30.19,9,3,12,0.00
2013-4-27,68,54,38,37,32,26,79,45,25,30.35,30.19,5,1,6,0.00
2013-4-28,68,57,41,45,36,29,79,48,29,30.22,30.08,8,2,12,0.00
2013-4-29,55,52,50,54,49,41,96,89,62,30.12,30.05,4,2,8,0.35
2013-4-30,66,56,46,52,44,29,97,68,32,30.24,30.08,5,2,10,0.03
2013-5-1,67,54,38,42,36,28,81,55,27,30.38,30.24,5,2,7,0.00
2013-5-2,71,55,39,47,41,36,96,63,29,30.37,30.23,5,1,10,0.01
2013-5-3,64,55,45,42,38,32,82,56,32,30.34,30.23,7,2,10,0.00
2013-5-4,68,54,39,46,40,33,96,65,28,30.28,30.11,5,2,7,0.00
2013-5-5,64,51,41,44,40,37,88,68,40,30.19,30.09,4,2,6,0.00
2013-5-6,68,54,41,53,47,39,95,80,54,30.16,30.03,4,2,5,0.00
2013-5-7,71,60,50,60,54,48,96,83,61,30.06,29.96,5,2,9,0.01
2013-5-8,70,60,56,61,58,54,96,91,63,29.97,29.82,6,2,13,0.80
2013-5-9,70,60,54,58,55,53,97,84,58,29.88,29.81,5,1,5,0.09
2013-5-10,80,66,52,61,56,51,97,73,41,29.92,29.79,8,1,14,0.16
2013-5-11,70,64,60,65,61,57,96,90,77,29.82,29.62,8,2,13,0.98
2013-5-12,61,57,46,56,39,22,90,55,27,29.88,29.61,14,7,18,0.07
2013-5-13,53,46,40,33,29,22,73,51,30,30.04,29.88,10,5,16,0.00
2013-5-14,60,48,35,33,29,21,86,52,24,30.08,29.95,9,3,13,0.00
2013-5-15,72,59,47,58,48,31,84,67,52,29.98,29.61,5,1,9,0.00
2013-5-16,80,67,56,65,57,43,96,73,40,29.77,29.63,5,1,7,0.03
2013-5-17,72,63,54,47,41,35,74,45,26,30.09,29.77,7,3,11,0.00
2013-5-18,64,58,51,56,51,44,90,78,61,30.20,30.09,4,1,5,0.01
2013-5-19,61,58,56,60,57,54,97,95,91,30.18,30.07,3,1,9,0.08
2013-5-20,78,67,57,68,62,56,98,86,66,30.08,29.87,3,1,4,0.00
2013-5-21,84,73,61,72,67,60,98,81,61,29.89,29.75,4,2,6,0.00
2013-5-22,86,75,66,72,68,64,97,81,51,29.82,29.71,5,1,6,0.00
2013-5-23,79,71,63,69,67,59,97,87,65,29.78,29.66,8,2,12,0.02
2013-5-24,63,53,45,62,48,36,97,84,64,29.93,29.61,14,6,20,0.01
2013-5-25,59,52,45,39,35,30,82,56,35,29.97,29.89,16,10,27,0.12
2013-5-26,67,56,46,40,35,30,64,45,26,30.12,29.94,14,6,24,0.00
2013-5-27,71,58,42,45,38,33,81,51,27,30.17,30.06,7,2,11,0.00
2013-5-28,60,56,49,58,53,44,98,88,63,30.12,30.02,2,0,5,0.26
2013-5-29,87,70,57,70,63,57,99,79,44,30.03,29.92,5,1,7,0.00
2013-5-30,90,78,66,68,64,58,93,65,36,30.05,29.98,6,1,8,0.00
2013-5-31,91,79,66,70,64,55,94,62,32,30.03,29.90,5,1,5,0.00
2013-6-1,90,79,69,70,67,64,89,67,44,29.92,29.80,4,2,9,0.00
2013-6-2,84,78,72,70,67,65,84,70,57,29.81,29.69,5,3,11,0.00
2013-6-3,79,72,66,68,64,53,96,77,54,29.80,29.71,6,2,7,0.10
2013-6-4,74,64,55,52,44,38,73,50,28,30.03,29.80,8,4,13,0.00
2013-6-5,76,63,48,52,46,39,83,55,32,30.12,29.99,3,1,5,0.00
2013-6-6,71,61,52,61,54,47,96,81,44,30.04,29.88,5,1,8,0.25
2013-6-7,64,62,60,63,60,58,98,97,94,29.87,29.53,6,2,7,2.47
2013-6-8,75,67,59,64,60,57,98,81,59,29.97,29.53,9,3,15,0.02
2013-6-9,81,70,56,63,58,54,95,70,43,30.09,29.98,5,1,9,0.00
2013-6-10,71,67,64,70,65,62,97,95,88,30.05,29.68,5,2,7,1.72
2013-6-11,77,71,66,70,66,63,96,84,62,29.68,29.61,9,3,13,0.02
2013-6-14,60,60,60,55,55,55,83,82,82,29.84,29.84,1,0,17,0.00
2013-6-15,78,68,58,59,54,48,85,63,35,29.94,29.83,8,2,12,0.00
2013-6-16,82,70,58,65,60,54,91,72,47,29.91,29.71,9,2,12,0.00
2013-6-17,84,73,64,71,64,62,95,77,48,29.83,29.75,8,2,15,0.58
2013-6-18,68,66,64,67,65,62,96,95,92,29.79,29.72,4,1,6,0.13
2013-6-19,76,66,57,62,53,46,95,66,38,30.07,29.79,5,2,10,0.01
2013-6-20,78,68,54,62,56,49,97,69,46,30.17,30.07,4,1,7,0.00
2013-6-21,82,70,56,60,54,48,83,59,40,30.21,30.13,4,1,9,0.00
2013-6-22,84,71,55,67,61,53,94,71,51,30.17,30.02,4,1,6,0.00
2013-6-23,85,74,64,72,67,61,95,79,57,30.10,29.95,3,1,8,0.00
2013-6-24,89,77,70,72,68,58,96,76,46,29.99,29.87,11,2,11,0.00
2013-6-25,89,76,66,74,67,63,92,75,47,29.91,29.74,8,2,14,0.07
2013-6-26,86,76,68,71,66,62,90,74,54,29.78,29.69,6,2,10,0.00
2013-6-27,85,76,69,73,69,67,97,82,58,29.73,29.45,5,1,11,0.57
2013-6-28,84,75,67,71,68,64,95,81,58,29.47,29.37,6,2,9,0.15
2013-6-29,84,74,66,69,65,61,98,76,47,29.60,29.39,4,1,7,0.01
2013-6-30,81,74,66,74,69,64,94,86,72,29.79,29.60,8,1,8,0.52
2013-7-1,77,74,69,74,72,68,97,92,82,29.92,29.78,5,1,9,2.20
2013-7-2,83,77,73,74,71,69,94,84,70,30.08,29.92,4,2,9,0.01
2013-7-3,84,77,70,74,71,68,95,83,66,30.15,30.07,4,1,10,0.00
2013-7-4,87,79,73,75,72,70,96,79,61,30.16,30.06,4,1,9,0.00
2013-7-5,89,81,73,75,72,70,94,75,54,30.12,30.00,4,1,9,0.00
2013-7-6,91,81,73,75,72,69,95,76,50,30.06,29.94,6,1,11,0.00
2013-7-7,90,80,71,75,72,69,96,78,54,29.99,29.85,13,2,13,0.34
2013-7-8,84,74,68,71,68,66,97,84,54,29.97,29.90,6,2,7,0.01
2013-7-9,85,76,68,73,70,67,97,82,63,29.98,29.90,8,1,9,0.01
2013-7-10,86,78,72,74,72,70,95,82,61,29.92,29.72,5,2,9,0.06
2013-7-11,83,76,73,74,69,60,93,79,60,29.83,29.71,4,1,5,0.00
2013-7-12,75,71,69,69,64,59,96,79,67,29.95,29.83,4,2,6,0.63
2013-7-13,84,74,68,75,71,67,98,90,65,30.19,29.97,3,1,5,0.28
2013-7-14,89,79,72,76,72,68,98,81,53,30.26,30.15,5,1,7,0.00
2013-7-15,92,82,72,79,72,69,93,73,51,30.18,30.05,6,2,6,0.00
2013-7-16,90,82,73,75,70,66,88,68,47,30.13,30.04,7,2,9,0.00
2013-7-17,93,82,71,74,69,64,95,67,40,30.11,29.97,6,1,11,0.00
2013-7-18,94,84,75,77,72,70,86,69,47,29.99,29.87,4,1,7,0.00
2013-7-19,93,84,77,79,76,70,94,76,51,29.88,29.71,6,2,7,0.02
2013-7-20,89,80,74,74,71,68,89,74,54,29.75,29.65,6,2,11,0.00
2013-7-21,86,78,71,72,70,66,93,78,56,29.85,29.74,4,1,4,0.00
2013-7-22,84,74,70,75,71,68,96,90,70,29.85,29.68,3,1,7,0.64
2013-7-23,84,76,70,73,70,67,98,84,59,29.69,29.49,6,2,11,1.02
2013-7-24,79,72,63,69,62,52,91,71,52,29.85,29.55,8,3,11,0.00
2013-7-25,69,63,58,60,55,51,90,75,64,29.96,29.85,5,2,5,0.00
2013-7-26,80,71,60,60,58,54,92,65,43,29.97,29.92,5,2,7,0.00
2013-7-27,81,71,58,68,62,56,97,74,54,29.96,29.83,4,1,6,0.00
2013-7-28,78,70,66,72,67,61,95,88,76,29.86,29.79,4,1,4,0.54
2013-7-29,79,74,63,63,56,52,83,54,40,30.03,29.95,7,4,12,0.03
2013-7-30,78,69,58,60,57,54,92,68,48,30.10,30.03,6,2,10,0.00
2013-7-31,80,69,57,65,60,56,97,75,48,30.07,29.93,3,0,3,0.00
2013-8-1,71,69,66,69,66,61,96,91,79,29.93,29.73,3,1,7,0.37
2013-8-2,81,73,64,69,64,59,97,75,47,29.84,29.72,5,2,13,0.00
2013-8-3,75,69,64,67,63,58,95,83,73,29.84,29.78,4,1,8,0.02
2013-8-4,76,68,60,63,57,52,98,72,43,29.91,29.78,9,3,14,0.01
2013-8-5,75,65,55,59,53,48,89,66,39,30.00,29.91,6,2,9,0.00
2013-8-6,76,66,54,63,58,53,97,78,49,30.02,29.94,4,1,5,0.00
2013-8-7,74,69,64,68,66,61,95,88,76,30.03,29.95,4,1,9,0.02
2013-8-8,86,75,69,74,70,67,97,85,65,29.96,29.87,5,2,6,0.08
2013-8-9,83,77,74,75,73,71,96,88,74,29.90,29.72,5,2,9,0.19
2013-8-10,81,74,66,73,65,60,96,76,54,29.95,29.79,6,2,10,0.01
2013-8-11,82,70,59,67,61,55,96,75,52,30.05,29.92,4,1,4,0.00
2013-8-12,83,73,67,68,65,61,96,79,49,29.94,29.83,3,1,6,0.06
2013-8-13,80,71,65,69,66,64,97,86,63,29.83,29.61,4,1,7,0.32
2013-8-14,71,64,57,66,52,47,91,66,48,29.98,29.68,12,5,16,0.00
2013-8-15,75,62,51,55,51,45,94,69,36,30.07,29.98,5,1,9,0.00
2013-8-16,78,65,52,59,54,48,97,70,37,30.11,30.04,3,1,5,0.00
2013-8-17,80,67,54,62,56,52,97,72,39,30.19,30.11,2,0,4,0.00
2013-8-18,72,66,61,64,61,58,94,85,64,30.16,30.05,4,1,5,0.00
2013-8-19,74,67,60,66,62,58,97,85,66,30.06,29.96,4,1,5,0.00
2013-8-20,85,73,61,69,64,60,98,78,47,30.05,29.97,4,1,6,0.00
2013-8-21,86,74,60,70,64,58,98,74,43,30.10,29.95,4,0,6,0.00
2013-8-22,80,74,69,73,70,66,95,87,68,29.97,29.79,9,1,11,0.08
2013-8-23,77,71,65,66,62,56,94,75,50,30.02,29.81,5,2,9,0.01
2013-8-24,78,67,57,57,54,49,89,64,38,30.27,30.02,6,2,7,0.01
2013-8-25,79,65,51,61,55,50,98,72,41,30.33,30.16,5,1,7,0.21
2013-8-26,82,71,61,67,61,55,89,73,57,30.16,29.84,6,1,11,0.02
2013-8-27,86,76,69,68,66,64,94,75,51,29.84,29.76,8,2,10,0.03
2013-8-28,73,70,66,72,68,65,97,95,89,29.80,29.75,4,0,7,1.66
2013-8-29,80,72,68,71,69,65,98,89,68,29.93,29.79,3,1,4,0.00
2013-8-30,82,73,66,72,68,64,94,84,68,29.94,29.77,4,1,7,0.00
2013-8-31,85,76,70,74,71,68,95,84,67,29.79,29.69,3,1,7,0.00
2013-9-1,87,76,70,75,71,67,96,86,61,29.75,29.67,5,1,11,0.64
2013-9-2,80,73,69,74,71,68,98,94,75,29.70,29.60,4,0,5,1.55
2013-9-3,78,72,64,70,63,55,98,77,46,29.82,29.63,8,3,12,0.00
2013-9-4,78,68,59,59,57,55,91,71,48,29.94,29.82,7,2,11,0.00
2013-9-5,75,65,55,62,54,44,91,69,34,30.07,29.86,9,2,15,0.00
2013-9-6,69,58,48,49,44,37,90,63,31,30.18,30.06,4,1,6,0.00
2013-9-7,77,61,45,57,50,44,98,71,37,30.06,29.82,5,1,8,0.00
2013-9-8,78,68,56,64,57,45,91,69,47,30.00,29.76,11,3,14,0.00
2013-9-9,74,62,48,62,53,44,90,72,52,30.15,30.00,4,1,8,0.00
2013-9-10,86,75,66,74,69,62,92,81,63,30.08,29.96,4,1,7,0.00
2013-9-11,92,80,71,76,72,69,97,79,55,30.03,29.88,5,1,9,0.00
2013-9-12,86,75,67,75,70,66,97,86,59,29.90,29.61,11,1,19,0.10
2013-9-13,73,66,56,67,58,48,98,78,51,29.80,29.56,12,4,14,0.03
2013-9-14,60,55,46,48,46,44,93,72,60,30.08,29.80,10,4,13,0.00
2013-9-15,72,56,43,53,48,42,97,75,43,30.14,30.00,5,1,11,0.00
2013-9-16,69,60,54,58,54,48,96,81,51,30.14,29.95,7,2,9,0.01
2013-9-17,64,53,43,47,42,39,95,70,41,30.34,30.17,7,2,7,0.00
2013-9-18,69,54,39,51,44,38,98,74,35,30.27,30.11,4,1,7,0.00
2013-9-19,75,59,44,55,49,43,98,74,42,30.11,29.99,4,1,6,0.00
2013-9-20,78,62,48,61,54,47,98,79,47,30.00,29.89,4,1,6,0.00
2013-9-21,77,64,47,66,57,46,98,80,46,29.91,29.59,6,2,10,0.14
2013-9-22,65,60,53,61,50,41,97,72,46,29.85,29.58,10,4,13,0.07
2013-9-23,62,54,47,45,42,39,83,65,50,29.98,29.85,9,4,12,0.00
2013-9-24,71,55,42,47,43,39,90,67,37,29.99,29.82,7,2,9,0.00
2013-9-25,72,57,44,54,47,42,95,72,42,29.89,29.80,4,1,7,0.00
2013-9-26,71,58,46,57,52,45,98,83,54,30.01,29.85,4,1,5,0.00
2013-9-27,69,59,50,55,52,49,96,81,50,30.18,30.01,3,0,5,0.00
2013-9-28,71,60,52,55,51,45,96,75,44,30.24,30.15,3,1,7,0.00
2013-9-29,70,58,46,57,51,46,98,81,51,30.15,29.99,4,1,6,0.00
2013-9-30,74,58,46,57,50,45,98,79,40,30.01,29.90,4,0,7,0.00
2013-10-1,77,63,49,61,54,48,97,77,49,29.95,29.84,6,1,10,0.00
2013-10-2,81,67,53,61,58,52,97,76,49,29.94,29.85,8,2,11,0.00
2013-10-3,79,67,54,63,59,54,98,78,47,30.04,29.94,3,0,4,0.00
2013-10-4,84,70,58,66,62,58,98,78,47,29.98,29.89,5,1,9,0.00
2013-10-5,84,72,62,67,64,61,97,80,51,29.99,29.90,3,0,3,0.00
2013-10-6,74,67,64,67,65,63,98,93,80,29.97,29.89,3,1,5,0.00
2013-10-7,76,65,56,70,62,45,96,90,65,29.92,29.65,10,3,13,0.00
2013-10-8,64,55,47,48,45,43,92,72,47,30.24,29.92,7,2,11,0.00
2013-10-9,59,52,46,47,45,40,91,76,61,30.30,30.17,5,2,8,0.00
2013-10-10,59,54,51,55,51,46,96,89,77,30.17,29.95,5,3,9,0.04
2013-10-11,62,59,55,61,57,54,96,92,86,29.98,29.90,5,3,8,0.91
2013-10-12,71,63,55,58,50,40,89,65,43,30.15,29.96,6,3,10,0.00
2013-10-13,66,59,51,54,50,48,92,74,53,30.28,30.14,5,3,10,0.00
2013-10-14,69,55,45,52,48,44,98,80,46,30.28,30.14,3,0,6,0.00
2013-10-15,71,55,43,57,47,40,98,77,48,30.17,30.02,3,0,5,0.00
2013-10-16,64,57,47,57,53,42,96,89,76,30.02,29.83,2,0,3,0.00
2013-10-17,70,64,57,63,60,55,97,88,68,29.83,29.60,5,1,6,0.01
2013-10-18,65,57,48,60,44,40,86,62,47,29.91,29.61,11,6,16,0.00
2013-10-19,62,51,39,53,44,38,96,79,47,29.91,29.68,4,1,5,0.01
2013-10-20,60,52,45,51,38,33,94,61,38,29.99,29.70,12,5,15,0.00
2013-10-21,66,51,37,45,38,34,95,65,35,30.08,29.89,5,1,9,0.00
2013-10-22,60,52,42,51,43,30,97,73,44,29.89,29.69,9,2,9,0.00
2013-10-23,54,27,40,38,-25,-100,88,34,49,29.74,29.55,7,-442,8,0.00
2013-10-24,50,19,37,35,-47,-100,81,22,38,29.96,29.71,10,-585,16,0.00
2013-10-25,52,26,37,34,-27,-100,77,31,44,30.16,29.96,12,-444,16,0.00
2013-10-26,54,31,37,33,-17,-100,78,33,38,30.16,29.82,9,-359,14,0.00
2013-10-27,55,48,41,35,31,28,66,52,38,30.06,29.80,11,4,14,0.00
2013-10-28,59,46,32,35,32,28,88,61,36,30.22,30.05,6,1,7,0.00
2013-10-29,58,46,37,38,35,32,86,67,40,30.33,30.22,3,0,4,0.00
2013-10-30,59,48,37,51,44,34,93,85,72,30.27,30.09,4,0,7,0.00
2013-10-31,66,58,48,60,55,46,98,89,72,30.14,29.71,6,2,11,0.00
2013-11-1,69,63,52,63,57,50,93,81,55,29.69,29.45,12,4,15,0.00
2013-11-2,66,54,48,52,45,38,96,73,44,29.71,29.55,8,1,13,0.00
2013-11-3,49,43,33,41,30,18,78,60,38,30.38,29.72,12,6,15,0.00
2013-11-4,46,35,28,21,17,12,68,49,27,30.57,30.38,5,1,7,0.00
2013-11-5,55,42,29,41,32,21,82,70,54,30.57,30.39,4,0,6,0.00
2013-11-6,64,53,44,51,45,40,88,76,54,30.40,29.98,6,2,7,0.00
2013-11-7,59,52,41,56,48,33,94,84,62,29.98,29.72,12,4,14,0.04
2013-11-8,47,41,36,34,27,24,73,57,42,30.17,29.88,15,6,22,0.00
2013-11-9,50,40,31,34,27,24,76,60,38,30.24,29.91,5,2,7,0.00
2013-11-10,55,46,36,35,30,24,80,56,34,30.02,29.80,16,6,17,0.00
2013-11-11,52,46,38,35,29,24,64,52,42,30.16,29.89,10,4,21,0.00
2013-11-12,49,36,27,35,20,13,77,53,43,30.26,29.85,13,7,17,0.00
2013-11-13,38,31,25,19,14,10,67,49,35,30.34,30.23,14,6,20,0.00
2013-11-14,52,39,27,25,17,11,69,44,20,30.23,30.11,8,3,11,0.00
2013-11-15,55,43,31,31,26,22,76,52,28,30.17,30.09,4,1,5,0.00
2013-11-16,59,48,40,46,41,29,95,77,51,30.25,30.16,3,1,5,0.00
2013-11-17,64,56,48,58,52,46,97,87,70,30.16,29.67,7,2,11,0.00
2013-11-18,63,58,47,61,39,24,95,55,26,29.75,29.53,14,7,18,0.01
2013-11-19,46,41,31,26,23,20,63,49,40,30.28,29.75,15,8,18,0.00
2013-11-20,44,34,27,21,14,4,65,46,20,30.52,30.28,7,2,9,0.00
2013-11-21,50,39,25,39,26,13,74,62,53,30.53,30.31,4,1,6,0.00
2013-11-22,56,50,45,49,45,38,95,84,73,30.30,29.86,10,2,11,0.00
2013-11-23,52,40,28,46,24,5,82,54,36,30.00,29.86,16,10,21,0.00
2013-11-24,28,24,20,7,0,-4,47,35,27,30.35,30.00,18,12,25,0.00
2013-11-25,33,26,17,15,10,5,72,52,39,30.44,30.26,6,3,9,0.00
2013-11-26,44,33,30,43,25,15,97,73,49,30.26,29.62,5,2,8,0.00
2013-11-27,60,42,31,60,37,18,98,86,55,29.74,29.32,15,8,19,0.53
2013-11-28,34,30,27,19,14,10,67,53,39,30.39,29.75,16,8,23,0.00
2013-11-29,36,29,23,22,18,15,82,63,47,30.66,30.39,6,2,8,0.00
2013-11-30,36,28,18,26,19,11,79,68,57,30.66,30.31,4,1,6,0.00
2013-12-1,46,37,27,30,27,24,92,70,49,30.30,29.94,3,1,5,0.00
2013-12-2,48,39,35,34,30,27,84,71,54,29.93,29.80,2,0,2,0.00
2013-12-3,53,41,33,38,33,29,86,73,45,29.93,29.81,4,1,6,0.00
2013-12-4,50,41,31,43,36,29,93,82,64,30.04,29.93,3,0,5,0.00
2013-12-5,58,52,45,57,50,43,98,96,89,30.02,29.84,4,1,7,0.00
2013-12-6,61,46,35,60,44,33,98,94,87,30.09,29.78,11,4,11,0.43
2013-12-7,37,33,28,34,27,19,94,78,64,30.45,30.02,11,4,16,0.10
2013-12-8,28,26,24,26,19,15,94,75,61,30.51,30.28,6,2,9,0.00
2013-12-9,35,33,28,34,32,27,97,96,94,30.27,29.92,4,2,7,0.05
2013-12-10,32,30,22,31,26,12,97,87,56,30.08,29.84,8,3,8,0.60
2013-12-11,30,24,18,17,14,10,76,64,50,30.28,30.09,7,2,8,0.00
2013-12-12,26,21,15,19,9,2,88,60,38,30.31,30.12,11,4,12,0.00
2013-12-13,33,25,14,17,11,3,64,54,42,30.25,30.08,9,3,14,0.00
2013-12-14,28,25,21,26,20,16,94,81,63,30.36,29.67,7,3,11,0.00
2013-12-15,38,31,25,32,25,18,96,79,56,29.78,29.50,14,5,22,0.27
2013-12-16,30,23,15,20,8,4,73,52,38,30.15,29.78,13,6,24,0.00
2013-12-17,25,20,16,21,16,8,89,84,69,30.14,29.88,5,1,6,0.00
2013-12-18,34,26,16,20,17,13,89,69,51,30.12,29.87,13,4,18,0.08
2013-12-19,42,31,19,27,22,14,87,69,51,30.12,29.96,5,1,6,0.17
2013-12-20,50,40,28,36,28,25,87,65,44,30.02,29.89,5,1,5,0.05
2013-12-21,61,50,38,54,43,33,92,79,60,29.93,29.80,6,1,10,0.00
2013-12-22,66,62,58,61,58,54,91,85,76,29.86,29.71,10,5,17,0.00
2013-12-23,59,53,39,58,49,28,97,88,62,30.09,29.82,11,4,16,0.49
2013-12-24,38,32,24,27,20,11,75,60,51,30.31,30.05,14,7,15,0.00
2013-12-25,26,23,17,14,8,4,61,54,45,30.47,30.31,11,3,15,0.00
2013-12-26,35,28,20,27,20,14,88,72,56,30.34,30.11,8,2,13,0.01
2013-12-27,40,32,25,22,18,16,70,59,41,30.29,30.21,9,2,10,0.00
2013-12-28,55,39,27,28,23,18,72,55,31,30.22,30.00,8,3,15,0.00
2013-12-29,43,40,38,40,33,26,97,78,53,30.00,29.38,10,2,12,0.09
2013-12-30,43,35,24,37,26,12,93,70,54,30.09,29.66,12,5,16,0.00
2013-12-31,31,25,18,25,14,8,85,64,47,30.24,29.99,13,4,19,0.00
2014-1-1,33,27,20,21,16,8,71,63,55,30.33,30.13,3,1,5,0.00
2014-1-2,29,25,14,23,20,11,90,80,68,30.13,29.60,8,4,12,0.00